Time,TemperatureF,DewpointF,PressureIn,WindDirection,WindDirectionDegrees,WindSpeedMPH,WindSpeedGustMPH,Humidity,HourlyPrecipIn,Conditions,Clouds,dailyrainin,SoftwareType,DateUTC
2013-05-15 00:02:00,69.3,60.3,30.15,East,79,3.0,8.0,73,0.00,,,0.00,meteohub,2013-05-15 04:02:00,
2013-05-15 00:08:00,69.1,60.1,30.15,East,84,0.0,8.0,73,0.00,,,0.00,meteohub,2013-05-15 04:08:00,
2013-05-15 00:14:00,68.9,60.3,30.15,East,95,0.0,7.0,74,0.00,,,0.00,meteohub,2013-05-15 04:14:00,
2013-05-15 00:20:00,68.7,59.7,30.15,East,84,0.0,5.0,73,0.00,,,0.00,meteohub,2013-05-15 04:20:00,
2013-05-15 00:22:00,68.7,59.7,30.15,ENE,72,3.0,5.0,73,0.00,,,0.00,meteohub,2013-05-15 04:22:00,
2013-05-15 00:27:00,68.7,59.7,30.15,East,85,3.0,6.0,73,0.00,,,0.00,meteohub,2013-05-15 04:27:00,
2013-05-15 00:32:00,68.5,59.5,30.16,East,83,0.0,6.0,73,0.00,,,0.00,meteohub,2013-05-15 04:32:00,
2013-05-15 00:37:00,68.5,59.5,30.15,East,87,0.0,5.0,73,0.00,,,0.00,meteohub,2013-05-15 04:37:00,
2013-05-15 00:42:00,68.4,59.4,30.15,East,84,2.0,5.0,73,0.00,,,0.00,meteohub,2013-05-15 04:42:00,
2013-05-15 00:47:00,68.4,59.4,30.15,East,81,0.0,5.0,73,0.00,,,0.00,meteohub,2013-05-15 04:47:00,
2013-05-15 00:52:00,68.4,59.4,30.15,East,81,0.0,5.0,73,0.00,,,0.00,meteohub,2013-05-15 04:52:00,
2013-05-15 00:57:00,68.2,59.2,30.15,East,81,0.0,5.0,73,0.00,,,0.00,meteohub,2013-05-15 04:57:00,
2013-05-15 01:02:00,68.2,59.5,30.15,East,95,0.0,3.0,74,0.00,,,0.00,meteohub,2013-05-15 05:02:00,
2013-05-15 01:07:00,68.2,59.5,30.15,East,87,0.0,5.0,74,0.00,,,0.00,meteohub,2013-05-15 05:07:00,
2013-05-15 01:12:00,68.2,59.5,30.15,East,87,0.0,5.0,74,0.00,,,0.00,meteohub,2013-05-15 05:12:00,
2013-05-15 01:17:00,68.0,59.4,30.15,East,87,1.0,5.0,74,0.00,,,0.00,meteohub,2013-05-15 05:17:00,
2013-05-15 01:22:00,67.8,59.2,30.15,SE,141,4.0,4.0,74,0.00,,,0.00,meteohub,2013-05-15 05:22:00,
2013-05-15 01:27:00,68.5,59.5,30.15,SE,135,3.0,5.0,73,0.00,,,0.00,meteohub,2013-05-15 05:27:00,
2013-05-15 01:32:00,69.1,59.4,30.15,SSE,152,0.0,6.0,71,0.00,,,0.00,meteohub,2013-05-15 05:32:00,
2013-05-15 01:37:00,69.6,59.0,30.15,SSE,149,4.0,7.0,69,0.00,,,0.00,meteohub,2013-05-15 05:37:00,
2013-05-15 01:42:00,70.0,59.0,30.15,SE,126,4.0,8.0,68,0.00,,,0.00,meteohub,2013-05-15 05:42:00,
2013-05-15 01:47:00,70.3,58.5,30.15,ESE,110,0.0,11.0,66,0.00,,,0.00,meteohub,2013-05-15 05:47:00,
2013-05-15 01:52:00,70.3,58.5,30.15,ESE,118,0.0,11.0,66,0.00,,,0.00,meteohub,2013-05-15 05:52:00,
2013-05-15 01:57:00,70.3,58.5,30.15,ESE,119,4.0,11.0,66,0.00,,,0.00,meteohub,2013-05-15 05:57:00,
2013-05-15 02:02:00,70.2,58.6,30.15,East,89,0.0,11.0,67,0.00,,,0.00,meteohub,2013-05-15 06:02:00,
2013-05-15 02:07:00,70.0,58.5,30.15,ESE,109,5.0,11.0,67,0.00,,,0.00,meteohub,2013-05-15 06:07:00,
2013-05-15 02:12:00,70.0,59.0,30.15,ESE,122,0.0,11.0,68,0.00,,,0.00,meteohub,2013-05-15 06:12:00,
2013-05-15 02:17:00,69.8,59.2,30.14,ESE,118,0.0,8.0,69,0.00,,,0.00,meteohub,2013-05-15 06:17:00,
2013-05-15 02:22:00,69.6,59.0,30.14,ESE,105,0.0,8.0,69,0.00,,,0.00,meteohub,2013-05-15 06:22:00,
2013-05-15 02:27:00,69.6,59.0,30.14,ESE,105,3.0,5.0,69,0.00,,,0.00,meteohub,2013-05-15 06:27:00,
2013-05-15 02:32:00,69.4,59.2,30.14,ESE,106,1.0,4.0,70,0.00,,,0.00,meteohub,2013-05-15 06:32:00,
2013-05-15 02:37:00,69.4,59.2,30.14,ESE,112,0.0,4.0,70,0.00,,,0.00,meteohub,2013-05-15 06:37:00,
2013-05-15 02:42:00,69.3,59.0,30.14,ESE,120,0.0,5.0,70,0.00,,,0.00,meteohub,2013-05-15 06:42:00,
2013-05-15 02:47:00,69.3,59.5,30.14,ESE,120,0.0,5.0,71,0.00,,,0.00,meteohub,2013-05-15 06:47:00,
2013-05-15 02:52:00,69.1,59.4,30.14,ESE,107,3.0,5.0,71,0.00,,,0.00,meteohub,2013-05-15 06:52:00,
2013-05-15 02:57:00,69.1,59.4,30.13,SE,131,1.0,5.0,71,0.00,,,0.00,meteohub,2013-05-15 06:57:00,
2013-05-15 03:02:00,68.9,59.5,30.13,SE,128,0.0,4.0,72,0.00,,,0.00,meteohub,2013-05-15 07:02:00,
2013-05-15 03:07:00,68.9,59.5,30.13,ESE,106,0.0,4.0,72,0.00,,,0.00,meteohub,2013-05-15 07:07:00,
2013-05-15 03:12:00,68.9,59.5,30.13,ESE,104,3.0,4.0,72,0.00,,,0.00,meteohub,2013-05-15 07:12:00,
2013-05-15 03:17:00,68.9,59.5,30.13,ESE,108,0.0,7.0,72,0.00,,,0.00,meteohub,2013-05-15 07:17:00,
2013-05-15 03:22:00,68.9,59.5,30.13,ESE,122,0.0,7.0,72,0.00,,,0.00,meteohub,2013-05-15 07:22:00,
2013-05-15 03:27:00,68.7,59.4,30.13,ESE,122,0.0,5.0,72,0.00,,,0.00,meteohub,2013-05-15 07:27:00,
2013-05-15 03:32:00,68.7,59.4,30.13,ESE,122,0.0,5.0,72,0.00,,,0.00,meteohub,2013-05-15 07:32:00,
2013-05-15 03:39:00,68.5,59.5,30.13,SE,124,0.0,4.0,73,0.00,,,0.00,meteohub,2013-05-15 07:39:00,
2013-05-15 03:45:00,68.5,59.5,30.13,SE,124,1.0,3.0,73,0.00,,,0.00,meteohub,2013-05-15 07:45:00,
2013-05-15 03:51:00,68.4,59.4,30.13,SE,124,0.0,3.0,73,0.00,,,0.00,meteohub,2013-05-15 07:51:00,
2013-05-15 03:57:00,68.4,59.7,30.13,SE,124,0.0,3.0,74,0.00,,,0.00,meteohub,2013-05-15 07:57:00,
2013-05-15 04:02:00,68.4,59.7,30.13,SE,124,0.0,2.0,74,0.00,,,0.00,meteohub,2013-05-15 08:02:00,
2013-05-15 04:07:00,68.2,59.5,30.13,SE,125,0.0,3.0,74,0.00,,,0.00,meteohub,2013-05-15 08:07:00,
2013-05-15 04:12:00,68.2,59.9,30.13,SE,124,0.0,3.0,75,0.00,,,0.00,meteohub,2013-05-15 08:12:00,
2013-05-15 04:17:00,68.0,59.7,30.13,SE,124,0.0,2.0,75,0.00,,,0.00,meteohub,2013-05-15 08:17:00,
2013-05-15 04:22:00,67.8,59.5,30.13,SE,124,0.0,2.0,75,0.00,,,0.00,meteohub,2013-05-15 08:22:00,
2013-05-15 04:27:00,67.8,59.5,30.13,SE,124,0.0,2.0,75,0.00,,,0.00,meteohub,2013-05-15 08:27:00,
2013-05-15 04:32:00,67.6,59.4,30.13,SE,124,0.0,1.0,75,0.00,,,0.00,meteohub,2013-05-15 08:32:00,
2013-05-15 04:37:00,67.6,59.4,30.13,SE,124,0.0,1.0,75,0.00,,,0.00,meteohub,2013-05-15 08:37:00,
2013-05-15 04:42:00,67.6,59.7,30.13,SE,129,0.0,1.0,76,0.00,,,0.00,meteohub,2013-05-15 08:42:00,
2013-05-15 04:47:00,67.8,59.9,30.13,SE,129,0.0,3.0,76,0.00,,,0.00,meteohub,2013-05-15 08:47:00,
2013-05-15 04:52:00,67.8,59.9,30.13,SE,129,0.0,3.0,76,0.00,,,0.00,meteohub,2013-05-15 08:52:00,
2013-05-15 04:57:00,67.6,59.7,30.13,SE,129,0.0,3.0,76,0.00,,,0.00,meteohub,2013-05-15 08:57:00,
2013-05-15 05:02:00,67.6,59.7,30.13,SE,129,0.0,1.0,76,0.00,,,0.00,meteohub,2013-05-15 09:02:00,
2013-05-15 05:07:00,67.5,60.1,30.13,SE,129,0.0,1.0,77,0.00,,,0.00,meteohub,2013-05-15 09:07:00,
2013-05-15 05:12:00,67.5,60.1,30.13,SE,129,0.0,2.0,77,0.00,,,0.00,meteohub,2013-05-15 09:12:00,
2013-05-15 05:17:00,67.3,59.9,30.13,SE,129,0.0,2.0,77,0.00,,,0.00,meteohub,2013-05-15 09:17:00,
2013-05-15 05:22:00,67.1,59.7,30.13,SE,129,0.0,2.0,77,0.00,,,0.00,meteohub,2013-05-15 09:22:00,
2013-05-15 05:27:00,66.9,59.9,30.13,SE,129,0.0,1.0,78,0.00,,,0.00,meteohub,2013-05-15 09:27:00,
2013-05-15 05:34:00,66.7,59.7,30.13,SE,129,0.0,0.0,78,0.00,,,0.00,meteohub,2013-05-15 09:34:00,
2013-05-15 05:40:00,66.6,59.9,30.13,SE,129,0.0,0.0,79,0.00,,,0.00,meteohub,2013-05-15 09:40:00,
2013-05-15 05:46:00,66.6,59.9,30.14,SE,129,0.0,0.0,79,0.00,,,0.00,meteohub,2013-05-15 09:46:00,
2013-05-15 05:52:00,66.4,59.7,30.14,SE,129,0.0,0.0,79,0.00,,,0.00,meteohub,2013-05-15 09:52:00,
2013-05-15 05:57:00,66.6,60.3,30.14,SE,129,0.0,0.0,80,0.00,,,0.00,meteohub,2013-05-15 09:57:00,
2013-05-15 06:02:00,66.6,59.9,30.14,SE,129,0.0,0.0,79,0.00,,,0.00,meteohub,2013-05-15 10:02:00,
2013-05-15 06:07:00,66.6,60.3,30.14,SE,129,0.0,0.0,80,0.00,,,0.00,meteohub,2013-05-15 10:07:00,
2013-05-15 06:12:00,66.6,60.3,30.14,SE,129,0.0,1.0,80,0.00,,,0.00,meteohub,2013-05-15 10:12:00,
2013-05-15 06:17:00,66.4,60.1,30.14,SE,129,0.0,1.0,80,0.00,,,0.00,meteohub,2013-05-15 10:17:00,
2013-05-15 06:22:00,66.4,60.1,30.14,SE,129,0.0,2.0,80,0.00,,,0.00,meteohub,2013-05-15 10:22:00,
2013-05-15 06:27:00,66.4,60.4,30.14,SE,129,0.0,2.0,81,0.00,,,0.00,meteohub,2013-05-15 10:27:00,
2013-05-15 06:32:00,66.6,60.3,30.14,SE,129,0.0,2.0,80,0.00,,,0.00,meteohub,2013-05-15 10:32:00,
2013-05-15 06:37:00,66.6,60.6,30.15,SE,129,0.0,2.0,81,0.00,,,0.00,meteohub,2013-05-15 10:37:00,
2013-05-15 06:42:00,66.6,60.6,30.15,SE,129,0.0,2.0,81,0.00,,,0.00,meteohub,2013-05-15 10:42:00,
2013-05-15 06:49:00,66.6,60.6,30.15,SE,129,0.0,1.0,81,0.00,,,0.00,meteohub,2013-05-15 10:49:00,
2013-05-15 06:55:00,66.6,60.6,30.15,SE,129,0.0,1.0,81,0.00,,,0.00,meteohub,2013-05-15 10:55:00,
2013-05-15 07:02:00,66.6,60.6,30.15,SE,129,0.0,1.0,81,0.00,,,0.00,meteohub,2013-05-15 11:02:00,
2013-05-15 07:07:00,66.6,60.6,30.15,SE,129,0.0,1.0,81,0.00,,,0.00,meteohub,2013-05-15 11:07:00,
2013-05-15 07:12:00,66.7,60.8,30.15,SE,129,0.0,1.0,81,0.00,,,0.00,meteohub,2013-05-15 11:12:00,
2013-05-15 07:17:00,66.7,60.4,30.15,SE,129,0.0,1.0,80,0.00,,,0.00,meteohub,2013-05-15 11:17:00,
2013-05-15 07:22:00,66.9,60.6,30.15,SE,129,0.0,1.0,80,0.00,,,0.00,meteohub,2013-05-15 11:22:00,
2013-05-15 07:27:00,67.3,61.0,30.15,SE,129,0.0,2.0,80,0.00,,,0.00,meteohub,2013-05-15 11:27:00,
2013-05-15 07:32:00,67.5,61.2,30.15,SE,129,0.0,2.0,80,0.00,,,0.00,meteohub,2013-05-15 11:32:00,
2013-05-15 07:38:00,67.8,61.3,30.15,SE,129,0.0,2.0,80,0.00,,,0.00,meteohub,2013-05-15 11:38:00,
2013-05-15 07:45:00,68.2,61.3,30.15,SE,129,0.0,0.0,79,0.00,,,0.00,meteohub,2013-05-15 11:45:00,
2013-05-15 07:51:00,68.5,61.7,30.15,ESE,122,0.0,3.0,79,0.00,,,0.00,meteohub,2013-05-15 11:51:00,
2013-05-15 07:57:00,69.1,61.9,30.15,ESE,122,0.0,3.0,78,0.00,,,0.00,meteohub,2013-05-15 11:57:00,
2013-05-15 08:02:00,69.6,62.1,30.15,SE,130,1.0,3.0,77,0.00,,,0.00,meteohub,2013-05-15 12:02:00,
2013-05-15 08:07:00,70.2,62.2,30.16,SE,138,0.0,6.0,76,0.00,,,0.00,meteohub,2013-05-15 12:07:00,
2013-05-15 08:12:00,70.7,62.4,30.16,SE,125,0.0,6.0,75,0.00,,,0.00,meteohub,2013-05-15 12:12:00,
2013-05-15 08:18:00,71.2,62.1,30.16,ESE,106,0.0,6.0,73,0.00,,,0.00,meteohub,2013-05-15 12:18:00,
2013-05-15 08:24:00,71.8,61.5,30.17,SE,145,0.0,4.0,70,0.00,,,0.00,meteohub,2013-05-15 12:24:00,
2013-05-15 08:31:00,72.0,61.2,30.17,ESE,120,4.0,7.0,69,0.00,,,0.00,meteohub,2013-05-15 12:31:00,
2013-05-15 08:37:00,72.5,61.0,30.17,ESE,117,0.0,7.0,67,0.00,,,0.00,meteohub,2013-05-15 12:37:00,
2013-05-15 08:44:00,73.0,61.0,30.17,ESE,103,1.0,7.0,66,0.00,,,0.00,meteohub,2013-05-15 12:44:00,
2013-05-15 08:50:00,73.6,61.5,30.17,SSE,152,2.0,7.0,66,0.00,,,0.00,meteohub,2013-05-15 12:50:00,
2013-05-15 08:56:00,73.8,60.8,30.17,SE,141,2.0,9.0,64,0.00,,,0.00,meteohub,2013-05-15 12:56:00,
2013-05-15 09:02:00,74.1,61.2,30.17,ESE,120,5.0,9.0,64,0.00,,,0.00,meteohub,2013-05-15 13:02:00,
2013-05-15 09:07:00,74.1,61.2,30.17,ESE,117,8.0,8.0,64,0.00,,,0.00,meteohub,2013-05-15 13:07:00,
2013-05-15 09:12:00,74.1,60.8,30.17,East,100,5.0,8.0,63,0.00,,,0.00,meteohub,2013-05-15 13:12:00,
2013-05-15 09:17:00,74.7,61.7,30.18,SE,129,6.0,8.0,64,0.00,,,0.00,meteohub,2013-05-15 13:17:00,
2013-05-15 09:22:00,74.7,60.8,30.18,East,92,5.0,10.0,62,0.00,,,0.00,meteohub,2013-05-15 13:22:00,
2013-05-15 09:27:00,74.8,61.0,30.18,East,94,6.0,10.0,62,0.00,,,0.00,meteohub,2013-05-15 13:27:00,
2013-05-15 09:32:00,74.8,61.3,30.18,ESE,112,8.0,10.0,63,0.00,,,0.00,meteohub,2013-05-15 13:32:00,
2013-05-15 09:37:00,75.0,61.2,30.18,SSE,149,3.0,9.0,62,0.00,,,0.00,meteohub,2013-05-15 13:37:00,
2013-05-15 09:45:00,75.7,61.3,30.18,SE,139,4.0,8.0,61,0.00,,,0.00,meteohub,2013-05-15 13:45:00,
2013-05-15 09:52:00,75.7,60.8,30.18,ENE,70,5.0,8.0,60,0.00,,,0.00,meteohub,2013-05-15 13:52:00,
2013-05-15 09:57:00,75.9,61.0,30.18,ESE,108,3.0,10.0,60,0.00,,,0.00,meteohub,2013-05-15 13:57:00,
2013-05-15 10:04:00,76.5,61.0,30.18,SE,129,2.0,10.0,59,0.00,,,0.00,meteohub,2013-05-15 14:04:00,
2013-05-15 10:10:00,76.6,61.2,30.18,East,91,5.0,10.0,59,0.00,,,0.00,meteohub,2013-05-15 14:10:00,
2013-05-15 10:16:00,77.2,60.8,30.17,SSE,151,2.0,7.0,57,0.00,,,0.00,meteohub,2013-05-15 14:16:00,
2013-05-15 10:22:00,77.4,61.3,30.17,ESE,104,1.0,8.0,58,0.00,,,0.00,meteohub,2013-05-15 14:22:00,
2013-05-15 10:27:00,77.7,60.8,30.18,ESE,119,4.0,8.0,56,0.00,,,0.00,meteohub,2013-05-15 14:27:00,
2013-05-15 10:35:00,77.7,60.3,30.18,SE,142,1.0,8.0,55,0.00,,,0.00,meteohub,2013-05-15 14:35:00,
2013-05-15 10:41:00,77.7,59.2,30.18,SE,139,1.0,8.0,53,0.00,,,0.00,meteohub,2013-05-15 14:41:00,
2013-05-15 10:47:00,78.3,60.3,30.18,ESE,115,0.0,8.0,54,0.00,,,0.00,meteohub,2013-05-15 14:47:00,
2013-05-15 10:52:00,78.6,59.5,30.18,ESE,104,5.0,10.0,52,0.00,,,0.00,meteohub,2013-05-15 14:52:00,
2013-05-15 10:57:00,78.6,57.2,30.17,East,87,0.0,10.0,48,0.00,,,0.00,meteohub,2013-05-15 14:57:00,
2013-05-15 11:02:00,79.0,58.1,30.17,East,80,8.0,10.0,49,0.00,,,0.00,meteohub,2013-05-15 15:02:00,
2013-05-15 11:07:00,78.6,56.1,30.17,SE,140,0.0,10.0,46,0.00,,,0.00,meteohub,2013-05-15 15:07:00,
2013-05-15 11:14:00,79.3,54.3,30.17,SE,146,2.0,10.0,42,0.00,,,0.00,meteohub,2013-05-15 15:14:00,
2013-05-15 11:20:00,79.5,54.5,30.17,SE,143,0.0,10.0,42,0.00,,,0.00,meteohub,2013-05-15 15:20:00,
2013-05-15 11:27:00,80.2,50.2,30.17,ESE,118,0.0,10.0,35,0.00,,,0.00,meteohub,2013-05-15 15:27:00,
2013-05-15 11:32:00,80.1,52.2,30.17,SSE,152,5.0,12.0,38,0.00,,,0.00,meteohub,2013-05-15 15:32:00,
2013-05-15 11:37:00,79.9,52.7,30.17,East,95,11.0,12.0,39,0.00,,,0.00,meteohub,2013-05-15 15:37:00,
2013-05-15 11:42:00,79.9,52.7,30.17,SE,131,7.0,12.0,39,0.00,,,0.00,meteohub,2013-05-15 15:42:00,
2013-05-15 11:48:00,80.2,53.1,30.17,SSE,147,4.0,14.0,39,0.00,,,0.00,meteohub,2013-05-15 15:48:00,
2013-05-15 11:55:00,80.2,54.3,30.17,SSE,164,5.0,14.0,41,0.00,,,0.00,meteohub,2013-05-15 15:55:00,
2013-05-15 12:01:00,80.1,54.9,30.17,ESE,103,11.0,11.0,42,0.00,,,0.00,meteohub,2013-05-15 16:01:00,
2013-05-15 12:07:00,80.1,54.9,30.17,ESE,103,0.0,13.0,42,0.00,,,0.00,meteohub,2013-05-15 16:07:00,
2013-05-15 12:13:00,80.4,55.2,30.17,ESE,102,4.0,13.0,42,0.00,,,0.00,meteohub,2013-05-15 16:13:00,
2013-05-15 12:19:00,81.0,55.8,30.17,SE,145,6.0,13.0,42,0.00,,,0.00,meteohub,2013-05-15 16:19:00,
2013-05-15 12:25:00,81.1,56.5,30.16,SE,134,3.0,11.0,43,0.00,,,0.00,meteohub,2013-05-15 16:25:00,
2013-05-15 12:32:00,81.1,55.9,30.16,East,100,3.0,11.0,42,0.00,,,0.00,meteohub,2013-05-15 16:32:00,
2013-05-15 12:37:00,80.8,56.1,30.16,ENE,75,3.0,14.0,43,0.00,,,0.00,meteohub,2013-05-15 16:37:00,
2013-05-15 12:42:00,81.5,56.1,30.16,ESE,107,8.0,14.0,42,0.00,,,0.00,meteohub,2013-05-15 16:42:00,
2013-05-15 12:47:00,81.7,55.8,30.16,ENE,76,0.0,14.0,41,0.00,,,0.00,meteohub,2013-05-15 16:47:00,
2013-05-15 12:52:00,81.9,55.9,30.16,East,100,5.0,10.0,41,0.00,,,0.00,meteohub,2013-05-15 16:52:00,
2013-05-15 12:57:00,81.9,54.5,30.15,East,96,5.0,10.0,39,0.00,,,0.00,meteohub,2013-05-15 16:57:00,
2013-05-15 13:02:00,81.7,55.0,30.15,SE,139,7.0,11.0,40,0.00,,,0.00,meteohub,2013-05-15 17:02:00,
2013-05-15 13:07:00,82.2,55.6,30.14,East,96,6.0,11.0,40,0.00,,,0.00,meteohub,2013-05-15 17:07:00,
2013-05-15 13:12:00,82.2,55.6,30.14,NE,56,7.0,11.0,40,0.00,,,0.00,meteohub,2013-05-15 17:12:00,
2013-05-15 13:17:00,82.6,55.0,30.14,East,90,7.0,11.0,39,0.00,,,0.00,meteohub,2013-05-15 17:17:00,
2013-05-15 13:22:00,82.2,54.9,30.14,East,83,7.0,11.0,39,0.00,,,0.00,meteohub,2013-05-15 17:22:00,
2013-05-15 13:27:00,82.4,55.0,30.14,SSE,149,1.0,11.0,39,0.00,,,0.00,meteohub,2013-05-15 17:27:00,
2013-05-15 13:32:00,82.9,54.7,30.13,ESE,104,8.0,11.0,38,0.00,,,0.00,meteohub,2013-05-15 17:32:00,
2013-05-15 13:37:00,83.5,55.2,30.13,East,86,10.0,10.0,38,0.00,,,0.00,meteohub,2013-05-15 17:37:00,
2013-05-15 13:43:00,83.1,54.9,30.13,East,79,10.0,13.0,38,0.00,,,0.00,meteohub,2013-05-15 17:43:00,
2013-05-15 13:49:00,83.1,54.9,30.13,SSE,151,7.0,13.0,38,0.00,,,0.00,meteohub,2013-05-15 17:49:00,
2013-05-15 13:55:00,83.7,54.7,30.13,ESE,118,9.0,11.0,37,0.00,,,0.00,meteohub,2013-05-15 17:55:00,
2013-05-15 14:01:00,83.5,54.5,30.12,SE,128,6.0,11.0,37,0.00,,,0.00,meteohub,2013-05-15 18:01:00,
2013-05-15 14:07:00,83.8,54.0,30.12,SSE,152,1.0,11.0,36,0.00,,,0.00,meteohub,2013-05-15 18:07:00,
2013-05-15 14:14:00,84.7,54.1,30.12,East,85,5.0,10.0,35,0.00,,,0.00,meteohub,2013-05-15 18:14:00,
2013-05-15 14:20:00,81.1,61.3,30.12,NW,320,6.0,10.0,51,0.00,,,0.00,meteohub,2013-05-15 18:20:00,
2013-05-15 14:26:00,79.2,61.5,30.12,WNW,295,5.0,11.0,55,0.00,,,0.00,meteohub,2013-05-15 18:26:00,
2013-05-15 14:32:00,79.3,61.7,30.12,NNW,332,1.0,12.0,55,0.00,,,0.00,meteohub,2013-05-15 18:32:00,
2013-05-15 14:37:00,79.5,61.3,30.12,WNW,298,4.0,12.0,54,0.00,,,0.00,meteohub,2013-05-15 18:37:00,
2013-05-15 14:42:00,78.6,61.5,30.12,NNW,337,4.0,14.0,56,0.00,,,0.00,meteohub,2013-05-15 18:42:00,
2013-05-15 14:48:00,79.2,62.1,30.12,West,278,7.0,14.0,56,0.00,,,0.00,meteohub,2013-05-15 18:48:00,
2013-05-15 14:54:00,78.6,61.5,30.11,WNW,283,5.0,14.0,56,0.00,,,0.00,meteohub,2013-05-15 18:54:00,
2013-05-15 15:00:00,78.4,61.5,30.11,NW,310,5.0,11.0,56,0.00,,,0.00,meteohub,2013-05-15 19:00:00,
2013-05-15 15:06:00,78.1,61.5,30.11,WNW,299,8.0,15.0,57,0.00,,,0.00,meteohub,2013-05-15 19:06:00,
2013-05-15 15:12:00,78.4,62.4,30.11,West,281,7.0,14.0,58,0.00,,,0.00,meteohub,2013-05-15 19:12:00,
2013-05-15 15:17:00,78.4,63.3,30.10,WSW,254,4.0,14.0,60,0.00,,,0.00,meteohub,2013-05-15 19:17:00,
2013-05-15 15:22:00,78.8,62.8,30.10,NW,321,6.0,11.0,58,0.00,,,0.00,meteohub,2013-05-15 19:22:00,
2013-05-15 15:27:00,77.9,61.9,30.10,WNW,303,5.0,13.0,58,0.00,,,0.00,meteohub,2013-05-15 19:27:00,
2013-05-15 15:32:00,78.1,61.5,30.10,WNW,301,2.0,13.0,57,0.00,,,0.00,meteohub,2013-05-15 19:32:00,
2013-05-15 15:37:00,78.6,63.1,30.09,NW,321,5.0,13.0,59,0.00,,,0.00,meteohub,2013-05-15 19:37:00,
2013-05-15 15:42:00,78.8,63.3,30.09,NW,322,6.0,13.0,59,0.00,,,0.00,meteohub,2013-05-15 19:42:00,
2013-05-15 15:47:00,79.2,62.6,30.09,North,350,4.0,10.0,57,0.00,,,0.00,meteohub,2013-05-15 19:47:00,
2013-05-15 15:52:00,80.4,62.8,30.09,NNW,345,2.0,10.0,55,0.00,,,0.00,meteohub,2013-05-15 19:52:00,
2013-05-15 15:57:00,79.9,62.8,30.09,NNW,335,4.0,11.0,56,0.00,,,0.00,meteohub,2013-05-15 19:57:00,
2013-05-15 16:04:00,80.1,63.5,30.09,NW,305,5.0,11.0,57,0.00,,,0.00,meteohub,2013-05-15 20:04:00,
2013-05-15 16:10:00,79.3,62.8,30.08,WNW,301,2.0,11.0,57,0.00,,,0.00,meteohub,2013-05-15 20:10:00,
2013-05-15 16:16:00,79.3,63.7,30.08,North,354,4.0,10.0,59,0.00,,,0.00,meteohub,2013-05-15 20:16:00,
2013-05-15 16:22:00,79.5,63.5,30.08,NNW,346,6.0,10.0,58,0.00,,,0.00,meteohub,2013-05-15 20:22:00,
2013-05-15 16:27:00,78.8,62.8,30.08,West,268,1.0,13.0,58,0.00,,,0.00,meteohub,2013-05-15 20:27:00,
2013-05-15 16:34:00,79.0,63.0,30.07,NW,311,5.0,13.0,58,0.00,,,0.00,meteohub,2013-05-15 20:34:00,
2013-05-15 16:40:00,78.6,62.6,30.07,NNW,343,2.0,13.0,58,0.00,,,0.00,meteohub,2013-05-15 20:40:00,
2013-05-15 16:46:00,79.2,63.1,30.07,North,349,3.0,12.0,58,0.00,,,0.00,meteohub,2013-05-15 20:46:00,
2013-05-15 16:52:00,78.6,61.5,30.07,WSW,258,3.0,12.0,56,0.00,,,0.00,meteohub,2013-05-15 20:52:00,
2013-05-15 16:57:00,78.6,61.5,30.07,WNW,303,4.0,12.0,56,0.00,,,0.00,meteohub,2013-05-15 20:57:00,
2013-05-15 17:02:00,78.6,62.1,30.06,NNW,335,4.0,12.0,57,0.00,,,0.00,meteohub,2013-05-15 21:02:00,
2013-05-15 17:07:00,79.0,62.4,30.07,NW,305,1.0,12.0,57,0.00,,,0.00,meteohub,2013-05-15 21:07:00,
2013-05-15 17:12:00,79.0,61.9,30.06,NW,309,5.0,10.0,56,0.00,,,0.00,meteohub,2013-05-15 21:12:00,
2013-05-15 17:17:00,79.3,62.2,30.06,NNW,339,4.0,10.0,56,0.00,,,0.00,meteohub,2013-05-15 21:17:00,
2013-05-15 17:22:00,79.0,61.9,30.06,NNE,12,5.0,9.0,56,0.00,,,0.00,meteohub,2013-05-15 21:22:00,
2013-05-15 17:28:00,78.4,61.0,30.07,NW,320,7.0,9.0,55,0.00,,,0.00,meteohub,2013-05-15 21:28:00,
2013-05-15 17:35:00,78.1,61.2,30.06,NNW,337,7.0,14.0,56,0.00,,,0.00,meteohub,2013-05-15 21:35:00,
2013-05-15 17:41:00,78.1,61.2,30.06,NW,324,6.0,12.0,56,0.00,,,0.00,meteohub,2013-05-15 21:41:00,
2013-05-15 17:47:00,77.7,60.8,30.06,NW,315,1.0,14.0,56,0.00,,,0.00,meteohub,2013-05-15 21:47:00,
2013-05-15 17:52:00,78.1,61.2,30.06,North,4,5.0,14.0,56,0.00,,,0.00,meteohub,2013-05-15 21:52:00,
2013-05-15 17:57:00,78.1,62.1,30.06,NNW,341,4.0,14.0,58,0.00,,,0.00,meteohub,2013-05-15 21:57:00,
2013-05-15 18:04:00,78.4,61.9,30.06,NNE,31,6.0,13.0,57,0.00,,,0.00,meteohub,2013-05-15 22:04:00,
2013-05-15 18:10:00,77.4,61.9,30.06,North,354,7.0,13.0,59,0.00,,,0.00,meteohub,2013-05-15 22:10:00,
2013-05-15 18:16:00,77.4,62.4,30.05,NNE,27,2.0,14.0,60,0.00,,,0.00,meteohub,2013-05-15 22:16:00,
2013-05-15 18:22:00,77.4,61.9,30.06,NNW,345,6.0,14.0,59,0.00,,,0.00,meteohub,2013-05-15 22:22:00,
2013-05-15 18:27:00,76.8,61.3,30.05,NNW,344,10.0,15.0,59,0.00,,,0.00,meteohub,2013-05-15 22:27:00,
2013-05-15 18:32:00,77.2,62.6,30.05,NW,324,5.0,15.0,61,0.00,,,0.00,meteohub,2013-05-15 22:32:00,
2013-05-15 18:37:00,77.2,62.6,30.05,North,354,4.0,15.0,61,0.00,,,0.00,meteohub,2013-05-15 22:37:00,
2013-05-15 18:42:00,77.2,62.2,30.05,NNE,18,5.0,12.0,60,0.00,,,0.00,meteohub,2013-05-15 22:42:00,
2013-05-15 18:47:00,77.0,62.6,30.04,WNW,296,6.0,12.0,61,0.00,,,0.00,meteohub,2013-05-15 22:47:00,
2013-05-15 18:53:00,76.6,63.1,30.04,North,9,5.0,12.0,63,0.00,,,0.00,meteohub,2013-05-15 22:53:00,
2013-05-15 18:59:00,76.5,63.0,30.04,North,359,3.0,12.0,63,0.00,,,0.00,meteohub,2013-05-15 22:59:00,
2013-05-15 19:05:00,76.6,63.1,30.04,North,354,2.0,12.0,63,0.00,,,0.00,meteohub,2013-05-15 23:05:00,
2013-05-15 19:11:00,76.6,63.1,30.04,North,8,5.0,10.0,63,0.00,,,0.00,meteohub,2013-05-15 23:11:00,
2013-05-15 19:17:00,76.6,62.6,30.04,North,349,4.0,9.0,62,0.00,,,0.00,meteohub,2013-05-15 23:17:00,
2013-05-15 19:22:00,76.5,62.4,30.04,NNW,342,11.0,11.0,62,0.00,,,0.00,meteohub,2013-05-15 23:22:00,
2013-05-15 19:27:00,76.5,62.4,30.04,North,354,4.0,11.0,62,0.00,,,0.00,meteohub,2013-05-15 23:27:00,
2013-05-15 19:33:00,76.5,62.4,30.04,North,354,10.0,11.0,62,0.00,,,0.00,meteohub,2013-05-15 23:33:00,
2013-05-15 19:39:00,76.1,62.1,30.04,NNW,337,1.0,11.0,62,0.00,,,0.00,meteohub,2013-05-15 23:39:00,
2013-05-15 19:45:00,75.9,61.9,30.04,NE,44,4.0,10.0,62,0.00,,,0.00,meteohub,2013-05-15 23:45:00,
2013-05-15 19:51:00,75.9,61.9,30.04,NE,41,3.0,9.0,62,0.00,,,0.00,meteohub,2013-05-15 23:51:00,
2013-05-15 19:57:00,75.9,62.4,30.04,NNE,12,5.0,9.0,63,0.00,,,0.00,meteohub,2013-05-15 23:57:00,
2013-05-15 20:02:00,75.7,62.2,30.04,NNE,31,4.0,8.0,63,0.00,,,0.00,meteohub,2013-05-16 00:02:00,
2013-05-15 20:07:00,75.6,62.1,30.04,North,359,4.0,8.0,63,0.00,,,0.00,meteohub,2013-05-16 00:07:00,
2013-05-15 20:12:00,75.4,61.9,30.04,North,9,3.0,10.0,63,0.00,,,0.00,meteohub,2013-05-16 00:12:00,
2013-05-15 20:17:00,75.4,62.4,30.04,NNW,342,0.0,10.0,64,0.00,,,0.00,meteohub,2013-05-16 00:17:00,
2013-05-15 20:22:00,75.2,62.2,30.04,North,10,3.0,8.0,64,0.00,,,0.00,meteohub,2013-05-16 00:22:00,
2013-05-15 20:27:00,75.2,61.7,30.04,North,359,3.0,8.0,63,0.00,,,0.00,meteohub,2013-05-16 00:27:00,
2013-05-15 20:32:00,75.2,62.2,30.04,NNW,343,2.0,8.0,64,0.00,,,0.00,meteohub,2013-05-16 00:32:00,
2013-05-15 20:37:00,75.0,62.4,30.05,NNW,347,1.0,7.0,65,0.00,,,0.00,meteohub,2013-05-16 00:37:00,
2013-05-15 20:42:00,75.0,63.0,30.05,NNE,22,2.0,8.0,66,0.00,,,0.00,meteohub,2013-05-16 00:42:00,
2013-05-15 20:47:00,75.0,62.1,30.05,NE,41,3.0,8.0,64,0.00,,,0.00,meteohub,2013-05-16 00:47:00,
2013-05-15 20:52:00,75.2,62.2,30.05,NE,43,0.0,8.0,64,0.00,,,0.00,meteohub,2013-05-16 00:52:00,
2013-05-15 20:57:00,75.2,62.2,30.05,NE,41,0.0,6.0,64,0.00,,,0.00,meteohub,2013-05-16 00:57:00,
2013-05-15 21:02:00,75.0,62.1,30.05,NE,50,4.0,8.0,64,0.00,,,0.00,meteohub,2013-05-16 01:02:00,
2013-05-15 21:07:00,75.0,62.1,30.05,NE,50,1.0,8.0,64,0.00,,,0.00,meteohub,2013-05-16 01:07:00,
2013-05-15 21:12:00,74.8,62.2,30.04,NNE,27,4.0,8.0,65,0.00,,,0.00,meteohub,2013-05-16 01:12:00,
2013-05-15 21:17:00,74.8,61.9,30.05,NE,56,3.0,7.0,64,0.00,,,0.00,meteohub,2013-05-16 01:17:00,
2013-05-15 21:22:00,74.7,62.1,30.05,NE,54,2.0,5.0,65,0.00,,,0.00,meteohub,2013-05-16 01:22:00,
2013-05-15 21:27:00,74.3,61.7,30.05,ENE,64,0.0,5.0,65,0.00,,,0.00,meteohub,2013-05-16 01:27:00,
2013-05-15 21:32:00,74.1,61.5,30.05,NNE,18,5.0,5.0,65,0.00,,,0.00,meteohub,2013-05-16 01:32:00,
2013-05-15 21:37:00,74.1,61.5,30.05,NE,42,2.0,5.0,65,0.00,,,0.00,meteohub,2013-05-16 01:37:00,
2013-05-15 21:42:00,74.1,61.5,30.05,ENE,62,1.0,5.0,65,0.00,,,0.00,meteohub,2013-05-16 01:42:00,
2013-05-15 21:47:00,73.9,61.3,30.05,NNE,30,1.0,5.0,65,0.00,,,0.00,meteohub,2013-05-16 01:47:00,
2013-05-15 21:55:00,73.9,61.3,30.06,NE,47,0.0,5.0,65,0.00,,,0.00,meteohub,2013-05-16 01:55:00,
2013-05-15 22:01:00,73.8,61.3,30.06,NE,48,0.0,5.0,65,0.00,,,0.00,meteohub,2013-05-16 02:01:00,
2013-05-15 22:07:00,73.8,61.3,30.06,NE,39,2.0,4.0,65,0.00,,,0.00,meteohub,2013-05-16 02:07:00,
2013-05-15 22:12:00,73.6,61.5,30.06,NE,39,2.0,4.0,66,0.00,,,0.00,meteohub,2013-05-16 02:12:00,
2013-05-15 22:17:00,73.4,61.3,30.07,ENE,61,2.0,4.0,66,0.00,,,0.00,meteohub,2013-05-16 02:17:00,
2013-05-15 22:22:00,73.2,61.2,30.07,NE,50,2.0,5.0,66,0.00,,,0.00,meteohub,2013-05-16 02:22:00,
2013-05-15 22:28:00,73.2,61.5,30.07,NE,52,0.0,5.0,67,0.00,,,0.00,meteohub,2013-05-16 02:28:00,
2013-05-15 22:34:00,73.0,61.5,30.07,NE,52,0.0,5.0,67,0.00,,,0.00,meteohub,2013-05-16 02:34:00,
2013-05-15 22:40:00,72.7,61.5,30.07,NE,52,0.0,3.0,68,0.00,,,0.00,meteohub,2013-05-16 02:40:00,
2013-05-15 22:46:00,72.5,61.3,30.07,NE,52,0.0,3.0,68,0.00,,,0.00,meteohub,2013-05-16 02:46:00,
2013-05-15 22:52:00,72.3,61.5,30.07,NE,53,2.0,2.0,69,0.00,,,0.00,meteohub,2013-05-16 02:52:00,
2013-05-15 22:57:00,72.3,61.5,30.07,NE,53,0.0,3.0,69,0.00,,,0.00,meteohub,2013-05-16 02:57:00,
2013-05-15 23:04:00,72.3,62.1,30.07,NE,53,0.0,3.0,70,0.00,,,0.00,meteohub,2013-05-16 03:04:00,
2013-05-15 23:10:00,72.1,61.9,30.07,NE,53,0.0,3.0,70,0.00,,,0.00,meteohub,2013-05-16 03:10:00,
2013-05-15 23:16:00,72.1,61.9,30.07,NE,53,0.0,3.0,70,0.00,,,0.00,meteohub,2013-05-16 03:16:00,
2013-05-15 23:22:00,72.0,61.7,30.07,ENE,70,4.0,4.0,70,0.00,,,0.00,meteohub,2013-05-16 03:22:00,
2013-05-15 23:27:00,72.0,62.1,30.06,ENE,70,0.0,4.0,71,0.00,,,0.00,meteohub,2013-05-16 03:27:00,
2013-05-15 23:32:00,72.0,61.7,30.07,East,79,2.0,5.0,70,0.00,,,0.00,meteohub,2013-05-16 03:32:00,
2013-05-15 23:37:00,72.0,61.7,30.06,East,86,2.0,6.0,70,0.00,,,0.00,meteohub,2013-05-16 03:37:00,
2013-05-15 23:44:00,72.0,61.7,30.06,East,87,2.0,6.0,70,0.00,,,0.00,meteohub,2013-05-16 03:44:00,
2013-05-15 23:50:00,72.0,61.7,30.06,East,90,2.0,6.0,70,0.00,,,0.00,meteohub,2013-05-16 03:50:00,
2013-05-15 23:56:00,72.0,61.7,30.06,East,94,6.0,8.0,70,0.00,,,0.00,meteohub,2013-05-16 03:56:00,